Regional Weather Roundup
Issued by NWS Little Rock, AR

Home | Current Version | Previous Version | Graphics & Text | Print | Product List | Glossary On
Versions: 1 2 3 4 5 6 7 8 9 10 11 12 13 14 15 16 17 18 19 20 21 22 23 24 25 26 27 28 29 30 31 32 33 34 35 36 37 38 39 40 41 42 43 44 45 46 47 48 49 50
000
ASUS44 KLZK 271605
RWRLZK

WEATHER ROUNDUP FOR ARKANSAS
NATIONAL WEATHER SERVICE LITTLE ROCK AR
1100 AM CDT SUN JUL 27 2014

NOTE: "FAIR" INDICATES FEW OR NO CLOUDS BELOW 12,000 FEET WITH NO
SIGNIFICANT WEATHER AND/OR OBSTRUCTIONS TO VISIBILITY.

ARZ001-003-010-029-271700-
NORTHWEST ARKANSAS

CITY           SKY/WX    TMP DP  RH WIND       PRES   REMARKS
FAYETTEVILLE   SUNNY     87  72  60 NW13G20   30.04R HX  93
FORT SMITH     SUNNY     91  74  57 W8        29.99S HX 100
HARRISON       PTSUNNY   85  71  63 W9G17     30.02S HX  90
BENTONVILLE    MOSUNNY   84  72  65 W9        30.05  HX  89
ROGERS         PTSUNNY   85  71  63 W10       30.05S HX  90
SILOAM SPGS    MOSUNNY   88  70  55 W8        30.05R HX  92
HIGHFILL       MOSUNNY   86  72  62 W12       30.04S HX  92
SPRINGDALE     SUNNY     88  72  58 NW12      30.06R HX  94
$$

ARZ004-005-016-271700-
NORTH CENTRAL ARKANSAS

CITY           SKY/WX    TMP DP  RH WIND       PRES   REMARKS
BATESVILLE     MOSUNNY   90  75  62 W10       29.97S HX 100
FLIPPIN        MOSUNNY   88  72  58 W9        29.99S HX  94
MTN HOME       MOSUNNY   88  73  61 VRB6      29.98F HX  95
$$

ARZ040-041-271700-
WEST CENTRAL ARKANSAS

CITY           SKY/WX    TMP DP  RH WIND       PRES   REMARKS
MENA           SUNNY     88  75  66 SW10      30.05F HX  97
MOUNT IDA      SUNNY     87  73  62 VRB6      30.02S HX  94
$$

ARZ009-017-025-026-028-271700-
NORTHEAST ARKANSAS

CITY           SKY/WX    TMP DP  RH WIND       PRES   REMARKS
CORNING        FAIR      90  75  62 W16       29.93F HX 100
JONESBORO      SUNNY     86  75  69 SW12      29.95F HX  95
NEWPORT        MOSUNNY   91  76  61 SW10      29.98S HX 102
WALNUT RIDGE   SUNNY     90  73  58 W10G17    29.94F HX  98
BLYTHEVILLE    SUNNY     89  76  65 SW9G20    29.95F HX 100
$$

ARZ022-023-033-042-044-271700-
CENTRAL ARKANSAS

CITY           SKY/WX    TMP DP  RH WIND       PRES   REMARKS
LITTLE ROCK    PTSUNNY   90  73  57 W15       30.00F HX  98
N LITTLE ROCK  PTSUNNY   86  77  73 W6        30.00F HX  97
JACKSONVILLE   PTSUNNY   88  76  67 W12       30.00F HX  98
SEARCY         PTSUNNY   88  77  69 W6        30.00S HX 100
HOT SPRINGS    SUNNY     88  74  63 SW8       30.03S HX  96
RUSSELLVILLE   SUNNY     88  74  63 W5        30.00S HX  96
CLINTON        FAIR      90  75  62 SW7       29.99S HX 100
$$

ARZ036-271700-
EAST ARKANSAS

CITY           SKY/WX    TMP DP  RH WIND       PRES   REMARKS
WEST MEMPHIS   MOSUNNY   87  78  74 SW10G20   29.98F HX 100
$$

ARZ050-053-066-070-073-271700-
SOUTHWEST ARKANSAS

CITY           SKY/WX    TMP DP  RH WIND       PRES   REMARKS
ARKADELPHIA    FAIR      89  76  65 SW10      30.03F HX 100
TEXARKANA      SUNNY     88  71  57 W12       30.05S HX  94
EL DORADO      SUNNY     88  73  61 SW10      30.07S HX  95
DE QUEEN       SUNNY     85  75  72 SW7       30.03S HX  93
$$

ARZ056-057-069-271700-
SOUTHEAST ARKANSAS

CITY           SKY/WX    TMP DP  RH WIND       PRES   REMARKS
PINE BLUFF     SUNNY     88  74  63 SW10      30.02S HX  96
STUTTGART      MOSUNNY   88  75  66 W14       30.02S HX  97
MONTICELLO     SUNNY     89  75  63 SW8       30.04S HX  99

$$




USA.gov is the U.S. government's official web portal to all federal, state and local government web resources and services.